FW8512 Weather Reports


time (UTC)temp
C
wind
direction
speed
KPH
gust
KPH
rain 1hr
cm
rain 24hr
cm
rain mn
cm
humidity
%
barometer
mb
20260503020100 18 135 4.8 9.7 0.00 0.00 0.00 21 1013.3
20260503014558 19 135 1.6 8.0 0.00 0.00 0.00 19 1013.1
20260503013050 20 135 1.6 6.4 0.00 0.00 0.00 18 1013.3
20260503011603 19 135 0.0 8.0 0.00 0.00 0.00 19 1013.3
20260503010047 18 135 0.0 9.7 0.00 0.00 0.00 20 1013.4
20260503004544 20 135 1.6 6.4 0.00 0.00 0.00 19 1013.6
20260503003042 18 135 0.0 6.4 0.00 0.00 0.00 21 1013.6
20260503001540 18 116 6.4 16.1 0.00 0.00 0.00 21 1013.6
20260503000049 19 136 11.3 24.1 0.00 0.00 0.00 24 1013.9
20260502234535 18 66 0.0 8.0 0.00 0.00 0.00 20 1014.0
20260502233034 18 280 4.8 11.3 0.00 0.00 0.00 20 1014.1
20260502231531 18 98 0.0 20.9 0.00 0.00 0.00 19 1014.2
20260502230029 18 309 3.2 11.3 0.00 0.00 0.00 20 1014.3
20260502224526 20 264 6.4 16.1 0.00 0.00 0.00 18 1014.4
20260502223125 20 135 0.0 9.7 0.00 0.00 0.00 18 1014.6
20260502221522 20 135 8.0 16.1 0.00 0.00 0.00 17 1014.9
20260502220019 20 136 4.8 12.9 0.00 0.00 0.00 17 1015.0
20260502214515 20 67 6.4 11.3 0.00 0.00 0.00 18 1015.2
20260502213015 20 197 6.4 11.3 0.00 0.00 0.00 19 1015.5
20260502211508 19 227 6.4 14.5 0.00 0.00 0.00 20 1015.7
20260502210007 18 165 0.0 8.0 0.00 0.00 0.00 21 1016.0
20260502204504 19 195 3.2 11.3 0.00 0.00 0.00 20 1016.2
20260502203100 18 204 1.6 6.4 0.00 0.00 0.00 21 1016.2
20260502201605 17 350 3.2 12.9 0.00 0.00 0.00 22 1016.3
20260502200058 17 266 3.2 11.3 0.00 0.00 0.00 23 1016.5
20260502194604 18 75 1.6 8.0 0.00 0.00 0.00 22 1016.6
20260502193105 17 271 3.2 11.3 0.00 0.00 0.00 23 1016.8
20260502191559 17 88 1.6 11.3 0.00 0.00 0.00 24 1017.2
20260502190050 18 163 9.7 14.5 0.00 0.00 0.00 23 1017.4
20260502184545 18 290 3.2 8.0 0.00 0.00 0.00 23 1017.4
20260502183040 18 72 4.8 16.1 0.00 0.00 0.00 23 1017.5
20260502181537 17 44 3.2 11.3 0.00 0.00 0.00 25 1017.8
20260502163015 15 239 4.8 11.3 0.00 0.00 0.00 30 1018.3
20260502161625 14 317 6.4 14.5 0.00 0.00 0.00 31 1018.4
20260502151555 11 272 6.4 12.9 0.00 0.00 0.00 39 1018.8
20260502123051 8 135 11.3 20.9 0.00 0.00 0.00 46 1017.8
20260502121523 8 352 9.7 19.3 0.00 0.00 0.00 46 1017.9
20260502114516 7 135 11.3 20.9 0.00 0.00 0.00 44 1017.3
20260502113011 8 290 11.3 20.9 0.00 0.00 0.00 42 1017.2
20260502111609 8 344 11.3 19.3 0.00 0.00 0.00 42 1017.0
20260502110005 8 305 8.0 12.9 0.00 0.00 0.00 42 1016.8
20260502104503 8 277 8.0 22.5 0.00 0.00 0.00 41 1016.6
20260502103058 8 288 8.0 12.9 0.00 0.00 0.00 42 1016.4
20260502101559 7 273 4.8 6.4 0.00 0.00 0.00 42 1016.0
20260502071511 9 313 1.6 3.2 0.00 0.00 0.00 32 1014.9
20260502070005 10 312 0.0 1.6 0.00 0.00 0.00 28 1014.8
20260502064600 11 272 0.0 1.6 0.00 0.00 0.00 27 1014.8
20260502063103 12 262 3.2 6.4 0.00 0.00 0.00 26 1014.7
20260502061555 11 302 1.6 9.7 0.00 0.00 0.00 26 1014.7
20260502060050 12 273 6.4 16.1 0.00 0.00 0.00 24 1014.7
20260502054550 12 25 4.8 9.7 0.00 0.00 0.00 25 1014.7
20260502053047 11 25 3.2 6.4 0.00 0.00 0.00 26 1014.8
20260502051545 12 25 4.8 11.3 0.00 0.00 0.00 22 1014.8
20260502050048 13 25 3.2 6.4 0.00 0.00 0.00 22 1014.5
20260502044543 12 25 1.6 8.0 0.00 0.00 0.00 23 1014.5
20260502043041 13 4 0.0 6.4 0.00 0.00 0.00 21 1014.3
20260502041537 14 295 3.2 9.7 0.00 0.00 0.00 19 1014.3
20260502040036 13 285 0.0 0.0 0.00 0.00 0.00 18 1014.3
20260502034534 14 285 0.0 1.6 0.00 0.00 0.00 17 1014.4
20260502033039 15 268 3.2 8.0 0.00 0.00 0.00 17 1014.1
20260502031631 15 262 1.6 8.0 0.00 0.00 0.00 15 1014.1
20260502030032 16 257 1.6 8.0 0.00 0.00 0.00 13 1013.9
20260502024526 17 252 1.6 8.0 0.00 0.00 0.00 11 1013.8
20260502023017 18 254 3.2 12.9 0.00 0.00 0.00 9 1013.7
20260502021511 20 266 3.2 9.7 0.00 0.00 0.00 8 1013.6